Regional Weather Roundup
Issued by NWS

Home | Current Version | Previous Version | Text Only | Print | Product List | Glossary Off
Versions: 1 2 3 4 5 6 7 8 9 10 11 12 13 14 15 16 17 18 19 20 21 22 23 24 25 26 27 28 29 30 31 32 33 34 35 36 37 38 39 40 41 42 43 44 45 46 47 48 49 50

000
ASUS43 KMPX 291401
RWRMN
WEATHER ROUNDUP FOR MINNESOTA
NATIONAL WEATHER SERVICE TWIN CITIES/CHANHASSEN MN
900 AM CDT WED MAR 29 2017


NOTE: "FAIR" INDICATES FEW OR NO CLOUDS BELOW 12,000 FEET WITH NO
SIGNIFICANT WEATHER AND/OR OBSTRUCTIONS TO VISIBILITY. N/A MEANS
CURRENT SKY AND/OR WEATHER CONDITIONS ARE NOT AVAILABLE.

MNZ060>063-068>070-291500-
   Twin Cities Metro

CITY           SKY/WX    TMP DP  RH WIND       PRES   REMARKS
TWIN CITIES    CLOUDY    46  33  60 SE5       30.24R
ST PAUL        CLOUDY    45  36  70 CALM      30.26R
CRYSTAL        CLOUDY    42  30  62 CALM      30.23R
BLAINE         CLOUDY    39  32  75 CALM      30.24R
LAKEVILLE        N/A     39  37  93 CALM      30.24R
EDEN PRAIRIE   CLOUDY    47  35  63 E3        30.23R
SOUTH ST PAUL  CLOUDY    45  33  63 CALM      30.24R
LAKE ELMO      FAIR      41  34  75 NE3       30.25R
$$
MNZ001>005-007-008-013>017-022>024-027-028-291500-
   Northwest Minnesota

CITY           SKY/WX    TMP DP  RH WIND       PRES   REMARKS
BEMIDJI        CLOUDY    35  29  76 SE8       30.23S WCI  29
HALLOCK        SUNNY     36  34  93 CALM      30.17S
ROSEAU         CLOUDY    39  30  70 SE6       30.19F
WARROAD        CLOUDY    36  30  80 E7        30.21F
THIEF RVR FALL CLOUDY    38  30  73 SE7       30.19F
CROOKSTON      MOSUNNY   37  34  87 SE5       30.18F
FOSSTON        CLOUDY    39  28  65 E7        30.19F
DETROIT LAKES  CLOUDY    39  30  70 SE8       30.20S
MOORHEAD       CLOUDY    39  34  81 S5        30.19R
PARK RAPIDS    CLOUDY    37  26  64 SE6       30.21S
MAHNOMEN       FAIR      40  30  67 SE8       30.18S
$$
MNZ006-009>011-018-025>026-291500-
   North Central Minnesota

CITY           SKY/WX    TMP DP  RH WIND       PRES   REMARKS
BAUDETTE       CLOUDY    35  26  69 MISG      30.23S
FLAG ISLAND    CLOUDY    34  25  69 SE6       30.22S WCI  29
INTL FALLS     CLOUDY    34  25  69 E9        30.27F WCI  27
WASKISH        CLOUDY    37  28  70 E5        30.23F
BIG FORK       CLOUDY    36  27  69 SE5       30.25F
LONGVILLE      CLOUDY    36  28  75 E5        30.24S
GRAND RAPIDS   CLOUDY    34  25  69 SE8       30.28S WCI  27
CRANE LAKE     PTSUNNY   32  25  74 CALM      30.32S
ORR            CLOUDY    34  21  60 CALM      30.26S
COOK           CLOUDY    32  25  74 E3        30.29S
WALKER         FAIR      33  28  80 E3        30.24R
$$
MNZ012-019>021-037-291500-
   Northeast Minnesota

CITY           SKY/WX    TMP DP  RH WIND       PRES   REMARKS
DULUTH         PTSUNNY   34  29  82 E15       30.29S WCI  24
ELY            CLOUDY    32  25  74 CALM      30.30S
HIBBING        PTSUNNY   31  26  82 E3        30.28S
EVELETH        PTSUNNY   32  21  64 E3        30.30S
DULUTH HARBOR  CLOUDY    36  34  93 NE18      30.34S
TWO HARBORS    MOSUNNY   37  30  75 NE13G20   30.31S
GRAND MARAIS     N/A     35  28  75 NE10G20   30.40R WCI  27
G MARAIS ARPRT CLOUDY    28  19  69 E7        30.35R WCI  21
$$
MNZ029>031-032-039>041-046>048-054>057-064-291500-
   West Central Minnesota

CITY           SKY/WX    TMP DP  RH WIND       PRES   REMARKS
FERGUS FALLS   CLOUDY    43  30  61 E6        30.22S
WHEATON        CLOUDY    36  36 100 E3        30.20F FOG
MORRIS         CLOUDY    41  34  75 E6        30.18S
ALEXANDRIA     CLOUDY    39  30  70 E9        30.21S
ELBOW LAKE     FAIR      41  33  73 SE9       30.19S
WADENA         CLOUDY    36  28  75 E7        30.21S
GLENWOOD       CLOUDY    37  30  75 NE8       30.21R
APPLETON       CLOUDY    43  34  70 E3        30.18S
BENSON         CLOUDY    45  27  49 SE7       30.21S
ORTONVILLE     CLOUDY    39  36  87 E3        30.18S
MADISON        CLOUDY    43  37  81 CALM      30.18S
WILLMAR        FAIR      45  34  65 E7        30.22R
$$
MNZ033>034-036-042>043-049>051-058-059-291500-
   Central Minnesota

CITY           SKY/WX    TMP DP  RH WIND       PRES   REMARKS
ST CLOUD       CLOUDY    37  30  75 E8        30.24R
SAUK CENTRE    FAIR      37  30  74 E7        30.22S
PAYNESVILLE    CLOUDY    38  31  74 E3        30.22S
AITKIN         CLOUDY    36  28  75 E3        30.24S
PINE RIVER     CLOUDY    34  28  80 E8        30.27S WCI  27
BRAINERD       CLOUDY    35  29  78 VRB3      30.24F
STAPLES        CLOUDY    36  28  75 E5        30.23R
LONG PRAIRIE   FAIR      36  30  80 NE6       30.23R
LITTLE FALLS   CLOUDY    36  30  80 CALM      30.23S
LITCHFIELD     CLOUDY    41  32  70 NE3       30.23R
BUFFALO        CLOUDY    38  30  71 NE3       30.25R
MAPLE LAKE     CLOUDY    39  32  77 CALM      30.25R
HUTCHINSON     SUNNY     42  34  72 E6        30.23R
$$
MNZ037-044-045-052-053-291500-
   East Central Minnesota

CITY           SKY/WX    TMP DP  RH WIND       PRES   REMARKS
PRINCETON      CLOUDY    37  30  75 NE5       30.25S
MORA           CLOUDY    34  30  86 NE3       30.28R
CAMBRIDGE      CLOUDY    37  28  70 NE6       30.24R
RUSH CITY      CLOUDY    35  30  83 NE6       30.26S WCI  30
MOOSE LAKE     CLOUDY    34  30  86 NE7       30.26S WCI  28
CLOQUET        PTSUNNY   34  28  80 E9        30.29S WCI  26
MCGREGOR       CLOUDY    34  30  86 E8G16     30.27S WCI  27
$$
MNZ071>073-080-081-089-090-097-098-291500-
   Southwest Minnesota

CITY           SKY/WX    TMP DP  RH WIND       PRES   REMARKS
MONTEVIDEO     CLOUDY    39  34  81 SE5       30.19S
GRANITE FALLS  PTSUNNY   42  36  78 CALM      30.21S
CANBY          PTSUNNY   41  38  90 CALM      30.19S
MARSHALL       CLOUDY    40  35  83 N3        30.19S
REDWOOD FALLS  CLOUDY    44  34  67 E5        30.19R
OLIVIA         CLOUDY    43  32  65 E5        30.20R
PIPESTONE      CLOUDY    45  36  70 E3        30.15S
WINDOM         CLOUDY    43  39  87 E5        30.18R
WORTHINGTON    CLOUDY    41  39  93 E7        30.18R
JACKSON        CLOUDY    41  37  87 E3        30.19R
TRACY          CLOUDY    43  37  80 CALM      30.18S
SLAYTON        CLOUDY    39  37  91 CALM      30.17S
$$
MNZ065>067-074>077-082>085-091>093-291500-
   South Central Minnesota

CITY           SKY/WX    TMP DP  RH WIND       PRES   REMARKS
MANKATO        CLOUDY    44  38  79 SE6       30.21R
NEW ULM        CLOUDY    45  36  70 E5        30.20S
ST JAMES       CLOUDY    43  37  81 CALM      30.20S
FAIRMONT       CLOUDY    43  38  82 E7        30.19R
GLENCOE        CLOUDY    43  38  84 CALM      30.22R
FARIBAULT      CLOUDY    45  36  70 E5        30.22S
OWATONNA       CLOUDY    43  36  75 E5        30.22R
WASECA         CLOUDY    41  36  81 E8        30.22R
ALBERT LEA     CLOUDY    43  36  75 SE9       30.20S
$$
MNZ078>079-086>088-094>096-291500-
   Southeast Minnesota

CITY           SKY/WX    TMP DP  RH WIND       PRES   REMARKS
ROCHESTER      CLOUDY    41  35  79 SE8       30.22R
RED WING       CLOUDY    43  36  75 SE3       30.24R
STANTON        CLOUDY    46  34  63 SE5       30.22R
DODGE CENTER   CLOUDY    41  36  81 E7        30.21S
WINONA         CLOUDY    41  34  75 SE3       30.26R
AUSTIN         CLOUDY    43  36  75 SE8       30.21R
PRESTON        CLOUDY    40  34  80 E6        30.22S
$$
ABBREVIATIONS USED IN REMARKS
   TC - TEMPERATURES IN CELSIUS
  WCI - WIND CHILL INDEX
   HX - HEAT INDEX
  VSB - VISIBILITY
$$




USA.gov is the U.S. government's official web portal to all federal, state and local government web resources and services.